Idaho Falls, ID

1:32 AM MDT on May 30, 2017 (GMT -0600)
Fanning

Weather History for KIDA - April, 2014

Change the Weather History Date:

Friday, April 25, 2014

  Actual Average Record
Temperature  
Mean Temperature 49 °F 47 °F  
Max Temperature 57 °F 61 °F 82 °F (1977)
Min Temperature 40 °F 33 °F 23 °F (2009)
Degree Days  
Heating Degree Days 16 18  
Month to date heating degree days 486 524  
Since 1 July heating degree days 6795 7228  
Cooling Degree Days 0 0  
Month to date cooling degree days 0 0  
Year to date cooling degree days 0 0  
Moisture  
Dew Point 40 °F    
Average Humidity 77    
Maximum Humidity 93    
Minimum Humidity 61    
Precipitation  
Precipitation 0.18 in 0.04 in 0.59 in (1976)
Month to date precipitation 0.58 0.89  
Year to date precipitation 2.87 3.10  
Sea Level Pressure  
Sea Level Pressure 29.69 in    
Wind  
Wind Speed 7 mph (South)    
Max Wind Speed 23 mph    
Max Gust Speed 30 mph    
Visibility 9 miles    
Events Rain    
T = Trace of Precipitation, MM = Missing Value Source: NWS Daily Summary

Daily Weather History Graph

Daily Weather History Graph

Search for Another Location

Airport or City:

Trip Planner

Search our weather history database for the weather conditions in past years. The results will help you decide how hot, cold, wet, or windy it might be!

Date:

Astronomy

Apr. 25, 2014 Rise Set
Actual Time 6:29 AM MDT 8:23 PM MDT
Civil Twilight 5:58 AM MDT 8:54 PM MDT
Nautical Twilight 5:21 AM MDT 9:32 PM MDT
Astronomical Twilight 4:40 AM MDT 10:13 PM MDT
Moon 4:27 AM MDT (4/25) 4:43 PM MDT (4/25)
Length of Visible Light 14h 55m
Length of Day
13h 53m
Waning Crescent, 15% of the Moon is Illuminated
Apr 25
Waning Crescent
Apr 29
New
May 6
First Quarter
May 14
Full
May 21
Last Quarter

Hourly Weather History & Observations

Time (MDT) Temp. Windchill Dew Point Humidity Pressure Visibility Wind Dir Wind Speed Gust Speed Precip Events Conditions
12:53 AM 46.9 °F - 35.1 °F 63% 29.87 in 10.0 mi South 8.1 mph - N/A   Clear
1:53 AM 44.1 °F 39.5 °F 37.0 °F 76% 29.86 in 10.0 mi SW 8.1 mph - N/A   Mostly Cloudy
2:53 AM 44.1 °F 40.8 °F 37.0 °F 76% 29.82 in 10.0 mi SSW 5.8 mph - N/A   Overcast
3:53 AM 46.0 °F 39.9 °F 36.0 °F 68% 29.81 in 10.0 mi South 13.8 mph - N/A   Overcast
4:53 AM 44.1 °F 41.5 °F 36.0 °F 73% 29.80 in 10.0 mi SSW 4.6 mph - N/A   Mostly Cloudy
5:53 AM 43.0 °F 39.5 °F 37.0 °F 80% 29.80 in 10.0 mi West 5.8 mph - N/A   Overcast
6:53 AM 44.1 °F 42.5 °F 37.9 °F 79% 29.80 in 10.0 mi NE 3.5 mph - 0.00 in Rain Light Rain
7:53 AM 45.0 °F - 37.9 °F 76% 29.80 in 10.0 mi Calm Calm - 0.00 in   Overcast
8:53 AM 48.0 °F - 37.0 °F 66% 29.78 in 10.0 mi South 9.2 mph - N/A   Mostly Cloudy
9:53 AM 50.0 °F - 37.0 °F 61% 29.77 in 10.0 mi South 9.2 mph - N/A   Overcast
10:53 AM 50.0 °F - 37.9 °F 63% 29.75 in 10.0 mi South 9.2 mph - 0.00 in Rain Light Rain
11:18 AM 46.9 °F - 42.1 °F 83% 29.78 in 6.0 mi SSE 6.9 mph - 0.02 in Rain Light Rain
11:34 AM 46.9 °F - 42.1 °F 83% 29.78 in 10.0 mi SE 4.6 mph - 0.03 in Rain Light Rain
11:53 AM 48.0 °F - 42.1 °F 80% 29.74 in 10.0 mi East 3.5 mph - 0.03 in Rain Light Rain
12:53 PM 51.1 °F - 41.0 °F 68% 29.70 in 10.0 mi Variable 4.6 mph - 0.00 in   Mostly Cloudy
1:53 PM 55.0 °F - 42.1 °F 62% 29.66 in 10.0 mi South 10.4 mph - N/A   Mostly Cloudy
2:53 PM 55.0 °F - 39.9 °F 57% 29.64 in 10.0 mi SSW 16.1 mph - 0.00 in Rain Light Rain
3:53 PM 51.1 °F - 42.1 °F 71% 29.62 in 10.0 mi WSW 11.5 mph - 0.00 in   Overcast
4:53 PM 51.1 °F - 42.1 °F 71% 29.62 in 10.0 mi WSW 6.9 mph - 0.00 in Rain Light Rain
5:10 PM 46.0 °F 39.9 °F 42.1 °F 86% 29.67 in 2.0 mi SSE 13.8 mph 29.9 mph 0.05 in Rain Rain
5:34 PM 46.0 °F - 42.1 °F 86% 29.65 in 5.0 mi Calm Calm - 0.08 in Rain Light Rain
5:53 PM 46.9 °F - 42.1 °F 83% 29.62 in 10.0 mi Calm Calm - 0.09 in Rain Light Rain
6:53 PM 48.0 °F - 42.1 °F 80% 29.60 in 10.0 mi North 3.5 mph - 0.00 in Rain Light Rain
7:53 PM 46.9 °F - 43.0 °F 86% 29.58 in 6.0 mi North 3.5 mph - 0.01 in Rain Light Rain
8:53 PM 46.9 °F - 43.0 °F 86% 29.56 in 10.0 mi East 3.5 mph - 0.02 in Rain Light Rain
9:53 PM 46.9 °F - 43.0 °F 86% 29.55 in 10.0 mi East 3.5 mph - 0.00 in   Overcast
10:46 PM 46.9 °F - 44.1 °F 90% 29.58 in 8.0 mi SSE 5.8 mph - 0.00 in Rain Light Rain
10:53 PM 44.1 °F 35.4 °F 41.0 °F 89% 29.55 in 6.0 mi West 21.9 mph 26.5 mph 0.01 in Rain Light Rain
11:02 PM 43.0 °F 36.0 °F 41.0 °F 93% 29.60 in 10.0 mi SW 13.8 mph - 0.00 in Rain Light Rain
11:39 PM 42.1 °F 34.5 °F 39.9 °F 92% 29.60 in 10.0 mi South 15.0 mph - 0.01 in Rain Light Rain
11:53 PM 41.0 °F 33.5 °F 39.9 °F 96% 29.56 in 10.0 mi South 13.8 mph - 0.02 in Rain Light Rain